Location: Barcelona
(41.3830°N, 2.1830°E)
Time: 07:54:09
(UTC+02:00)

ISS - Pass Details

Date: 14 October 2017
Orbit: 400 x 408 km, 51.6° (Epoch: 24 October)

Event Time Altitude Azimuth Distance (km) Brightness Sun altitude
Rises 20:49:27 0° 298° (WNW) 2,326 1.3 -19.1°
Reaches altitude 10° 20:51:39 10° 288° (WNW) 1,464 0.2 -19.5°
Maximum altitude 20:54:38 32° 223° (SW) 718 -2.3 -20.1°
Enters shadow 20:55:34 27° 189° (S) 821 -2.3 -20.2°
